Waarnemingen

Advertentie
Mijn weer
Herstmonceux, Groot Brittannië (3882): temperatuur & dauwpunt: 08.08.2018 14:00:00 - 14.08.2018 14:00:00 (BST)Herstmonceux, Groot Brittannië (3882): temperatuur -20cm & temperatuur -100cm: 08.08.2018 14:00:00 - 14.08.2018 14:00:00 (BST)Herstmonceux, Groot Brittannië (3882): windsnelheid & windstoten: 08.08.2018 14:00:00 - 14.08.2018 14:00:00 (BST)Herstmonceux, Groot Brittannië (3882): windrichting: 08.08.2018 14:00:00 - 14.08.2018 14:00:00 (BST)Herstmonceux, Groot Brittannië (3882): luchtdruk: 08.08.2018 14:00:00 - 14.08.2018 14:00:00 (BST)Herstmonceux, Groot Brittannië (3882): zicht: 08.08.2018 14:00:00 - 14.08.2018 14:00:00 (BST)Herstmonceux, Groot Brittannië (3882): Zonneschijnduur: 08.08.2018 14:00:00 - 14.08.2018 14:00:00 (BST)Herstmonceux, Groot Brittannië (3882): neerslag: 08.08.2018 14:00:00 - 14.08.2018 14:00:00 (BST)
Datum & Tijd tt [°C] td [°C] tt -20cm [°C] tt -100cm [°C] ff [km/u] ff [kn] fx [km/u] fx [kn] dd ppp [hPa] vv [km] sd [min] rr [mm]
14.08.2018 14:00:00 19,7 15,7 - - 9 5 - - WZW 1017,8 35 12 0,0
14.08.2018 13:00:00 19,2 15,2 - - 11 6 - - WZW 1017,6 30 6 0,0
14.08.2018 12:00:00 20,0 14,4 - - 11 6 - - WZW 1017,3 28 30 0,0
14.08.2018 11:00:00 18,8 13,8 - - 9 5 - - W 1017,1 40 6 0,0
14.08.2018 10:00:00 17,7 14,4 19,7 18,7 5 3 - - W 1016,8 30 0 0,0
14.08.2018 09:00:00 16,8 13,9 - - 8 4 - - WNW 1016,6 45 42 0,0
14.08.2018 08:00:00 15,3 14,1 - - 5 3 - - WNW 1016,2 40 6 0,0
14.08.2018 07:00:00 13,9 13,4 - - 5 3 - - WNW 1015,6 29 0 0,0
14.08.2018 06:00:00 14,0 13,6 - - 8 4 - - NW 1014,8 20 0 0,0
14.08.2018 05:00:00 14,4 13,9 - - 5 3 - - W 1014,2 13 0 0,0
14.08.2018 04:00:00 14,5 13,8 - - 5 3 - - W 1013,8 26 0 0,0
14.08.2018 03:00:00 14,9 13,5 - - 5 3 - - W 1013,6 40 0 0,0
14.08.2018 02:00:00 16,3 14,2 - - 5 3 - - WNW 1012,9 35 0 0,0
14.08.2018 01:00:00 16,6 15,1 - - 8 4 - - NW 1012,3 23 - 0,0
14.08.2018 00:00:00 16,9 16,0 - - 8 4 - - NW 1011,7 17 0 0,0
13.08.2018 23:00:00 17,5 16,8 - - 5 3 - - WNW 1011,1 11 0 0,0
13.08.2018 22:00:00 17,7 16,9 - - 8 4 - - W 1010,5 11 0 0,0
13.08.2018 21:00:00 18,1 16,7 - - 13 7 - - W 1010,1 12 0 0,0
13.08.2018 20:00:00 19,2 16,5 - - 11 6 - - W 1009,4 18 60 0,0
13.08.2018 19:00:00 20,8 16,8 - - 13 7 - - W 1008,7 26 54 0,0
13.08.2018 18:00:00 20,7 16,3 - - 16 9 - - WZW 1008,3 22 54 0,0
13.08.2018 17:00:00 21,2 16,1 - - 18 10 - - W 1008,0 26 48 0,0
13.08.2018 16:00:00 21,1 16,4 - - 18 10 - - WZW 1007,8 18 42 0,0
13.08.2018 15:00:00 20,5 16,0 - - 16 9 - - W 1007,9 30 36 0,0
13.08.2018 14:00:00 18,5 15,1 - - 16 9 - - W 1007,9 45 12 0,0
13.08.2018 13:00:00 20,2 15,1 - - 11 6 - - W 1007,4 40 24 0,0
13.08.2018 12:00:00 19,5 16,1 - - 9 5 - - WNW 1007,3 40 12 0,0
13.08.2018 11:00:00 19,3 16,2 - - 8 4 - - W 1006,9 45 6 0,0
13.08.2018 10:00:00 18,2 16,2 19,2 18,7 5 3 - - W 1006,6 30 18 0,0
13.08.2018 09:00:00 16,5 16,3 - - 5 3 - - WNW 1006,5 18 12 0,0
13.08.2018 08:00:00 15,7 15,6 - - 4 2 - - WNW 1006,4 14 0 0,0
13.08.2018 07:00:00 15,7 15,5 - - 2 1 - - ZW 1005,9 7 0 5,8
13.08.2018 06:00:00 15,7 15,6 - - 2 1 - - WNW 1005,6 7 0 0,0
13.08.2018 05:00:00 15,7 15,6 - - 2 1 - - WZW 1005,5 4,6 0 0,0
13.08.2018 04:00:00 16,0 15,8 - - 2 1 - - WZW 1005,7 4,9 0 0,0
13.08.2018 03:00:00 15,3 15,0 - - 0 0 - - N 1005,8 0,5 0 0,0
13.08.2018 02:00:00 16,3 15,9 - - 2 1 - - O 1006,2 3,1 0 0,0
13.08.2018 01:00:00 16,6 16,3 - - 4 2 - - ONO 1006,7 5 - 0,0
13.08.2018 00:00:00 16,7 16,4 - - 5 3 - - ZZW 1007,0 11 0 0,0
12.08.2018 23:00:00 16,6 16,2 - - 4 2 - - Z 1007,6 9 0 0,0
12.08.2018 22:00:00 16,5 15,9 - - 4 2 - - WZW 1008,0 3,8 0 2,8
12.08.2018 21:00:00 17,5 14,9 - - 8 4 - - WZW 1008,1 7 0 0,2
12.08.2018 20:00:00 18,6 13,9 - - 8 4 - - WZW 1008,2 45 0 0,0
12.08.2018 19:00:00 19,1 14,2 - - 8 4 - - ZW 1008,5 40 0 0,0
12.08.2018 18:00:00 19,5 13,3 - - 13 7 - - ZW 1009,2 45 0 0,0
12.08.2018 17:00:00 20,4 13,2 - - 13 7 - - WZW 1009,5 50 0 0,0
12.08.2018 16:00:00 20,8 13,4 - - 8 4 - - WZW 1009,7 30 0 0,0
12.08.2018 15:00:00 19,9 13,5 - - 9 5 - - ZW 1010,9 35 0 0,0
12.08.2018 14:00:00 20,6 13,8 - - 9 5 - - WZW 1011,3 28 0 0,0
12.08.2018 13:00:00 20,8 13,9 - - 15 8 - - ZW 1011,4 45 0 0,0
12.08.2018 12:00:00 21,8 14,1 - - 15 8 - - ZW 1011,8 40 24 0,0
12.08.2018 11:00:00 22,4 15,0 - - 15 8 - - ZZW 1012,1 50 48 0,0
12.08.2018 10:00:00 20,2 14,3 18,9 19,0 16 9 - - ZW 1012,5 40 24 0,0
12.08.2018 09:00:00 20,4 15,7 - - 15 8 - - ZZW 1012,7 35 42 0,0
12.08.2018 08:00:00 18,6 16,1 - - 11 6 - - ZW 1013,2 35 0 0,0
12.08.2018 07:00:00 17,9 15,8 - - 8 4 - - ZW 1013,7 26 0 0,0
12.08.2018 06:00:00 17,2 15,9 - - 8 4 - - ZZW 1013,9 24 0 0,0
12.08.2018 05:00:00 16,6 15,8 - - 5 3 - - Z 1014,3 30 0 0,0
12.08.2018 04:00:00 16,8 15,9 - - 5 3 - - Z 1015,1 40 0 0,0
12.08.2018 03:00:00 15,9 14,9 - - 4 2 - - Z 1015,9 26 0 0,0
12.08.2018 02:00:00 16,8 15,0 - - 5 3 - - ZZW 1016,8 30 0 0,0
12.08.2018 01:00:00 17,1 15,4 - - 5 3 - - Z 1017,5 45 - 0,0
12.08.2018 00:00:00 16,4 14,6 - - 5 3 - - ZZW 1018,3 45 0 0,0
11.08.2018 23:00:00 17,2 15,2 - - 8 4 - - Z 1019,1 45 0 0,0
11.08.2018 22:00:00 17,1 15,2 - - 5 3 - - Z 1019,7 45 0 0,0
11.08.2018 21:00:00 17,2 15,0 - - 5 3 - - ZZW 1020,2 30 0 0,0
11.08.2018 20:00:00 17,7 15,0 - - 5 3 - - ZW 1020,4 35 0 0,0
11.08.2018 19:00:00 18,2 14,8 - - 9 5 - - ZW 1020,9 50 0 0,0
11.08.2018 18:00:00 18,5 14,0 - - 11 6 - - ZW 1021,4 29 0 0,0
11.08.2018 17:00:00 18,9 13,6 - - 13 7 - - ZW 1021,7 35 24 0,0
11.08.2018 16:00:00 19,3 13,0 - - 13 7 - - ZZW 1022,2 40 6 0,0
11.08.2018 15:00:00 19,1 12,5 - - 11 6 - - ZZW 1022,8 30 6 0,0
11.08.2018 14:00:00 20,0 9,5 - - 9 5 - - WZW 1023,0 40 54 0,0
11.08.2018 13:00:00 19,6 8,8 - - 9 5 - - ZW 1023,3 45 60 0,0
11.08.2018 12:00:00 18,7 10,9 - - 9 5 - - Z 1023,6 40 54 0,0
11.08.2018 11:00:00 17,7 8,5 - - 5 3 - - WZW 1023,7 45 60 0,0
11.08.2018 10:00:00 16,4 10,6 17,9 19,2 5 3 - - WZW 1024,0 30 60 0,0
11.08.2018 09:00:00 14,3 12,3 - - 4 2 - - ZW 1024,2 50 60 0,0
11.08.2018 08:00:00 11,5 11,3 - - 2 1 - - W 1024,0 40 18 0,0
11.08.2018 07:00:00 9,9 9,6 - - 5 3 - - N 1023,6 45 0 0,0
11.08.2018 06:00:00 8,3 8,0 - - 4 2 - - NW 1023,3 40 0 0,2
11.08.2018 05:00:00 9,1 8,7 - - 4 2 - - NNW 1022,9 40 0 0,0
11.08.2018 04:00:00 9,2 8,6 - - 2 1 - - ZZW 1022,7 7 0 0,0
11.08.2018 03:00:00 10,6 10,0 - - 5 3 - - NNW 1022,6 40 0 0,0
11.08.2018 02:00:00 10,9 10,1 - - 5 3 - - NW 1022,4 30 0 0,0
11.08.2018 01:00:00 12,0 11,1 - - 5 3 - - WNW 1022,1 40 - 0,0
11.08.2018 00:00:00 12,7 11,7 - - 8 4 - - NW 1021,8 40 0 0,0
10.08.2018 23:00:00 12,9 12,2 - - 5 3 - - NW 1021,3 30 0 0,0
10.08.2018 22:00:00 14,4 13,0 - - 11 6 - - W 1020,6 30 0 0,0
10.08.2018 21:00:00 13,5 12,9 - - 8 4 - - W 1019,8 19 12 0,0
10.08.2018 20:00:00 13,8 12,6 - - 9 5 - - WZW 1019,2 16 24 0,0
10.08.2018 19:00:00 13,8 13,4 - - 11 6 - - WZW 1018,6 13 0 3,0
10.08.2018 18:00:00 13,1 12,7 - - 11 6 - - WZW 1019,0 4,2 0 21,2
10.08.2018 17:00:00 13,7 12,9 - - 15 8 55 30 W 1018,5 19 0 18,8
10.08.2018 16:00:00 17,5 13,9 - - 28 15 57 31 WZW 1018,0 14 0 0,0
10.08.2018 15:00:00 17,5 13,7 - - 28 15 61 33 WZW - - 6 0,2
10.08.2018 14:00:00 15,7 14,0 - - 29 16 59 32 WZW 1018,4 12 0 0,6
10.08.2018 13:00:00 15,5 14,0 - - 24 13 50 27 ZW 1018,6 14 0 2,0
10.08.2018 12:00:00 17,2 12,5 - - 24 13 48 26 ZW 1019,2 14 6 0,0
10.08.2018 11:00:00 18,0 12,3 - - 18 10 - - ZW 1019,4 30 36 0,0
10.08.2018 10:00:00 17,1 12,0 19,5 19,7 18 10 - - WZW 1019,5 30 48 0,0
10.08.2018 09:00:00 15,3 12,8 - - 5 3 - - WZW 1019,7 40 36 0,0
10.08.2018 08:00:00 12,4 11,9 - - 4 2 - - ZW 1019,6 16 0 3,6
10.08.2018 07:00:00 11,5 10,8 - - 4 2 - - WZW 1019,6 19 0 0,0
10.08.2018 06:00:00 10,6 9,8 - - 2 1 - - W 1019,2 25 0 0,0
10.08.2018 05:00:00 11,3 10,3 - - 5 3 - - WZW 1018,8 17 0 0,4
10.08.2018 04:00:00 9,6 8,9 - - 2 1 - - NO 1018,9 14 0 0,0
10.08.2018 03:00:00 10,7 9,4 - - 2 1 - - WZW 1018,8 24 0 0,0
10.08.2018 02:00:00 10,9 10,1 - - 4 2 - - W 1018,5 23 0 0,0
10.08.2018 01:00:00 11,9 9,7 - - 2 1 - - W 1018,0 26 - 0,0
10.08.2018 00:00:00 13,6 10,3 - - 5 3 - - NW 1017,6 28 0 0,0
09.08.2018 23:00:00 13,6 9,7 - - 5 3 - - W 1017,2 35 0 0,0
09.08.2018 22:00:00 15,3 10,1 - - 8 4 - - WNW 1016,5 35 0 0,0
09.08.2018 21:00:00 15,9 11,8 - - 8 4 - - WZW 1015,7 23 6 0,0
09.08.2018 20:00:00 17,2 12,4 - - 9 5 - - WZW 1015,1 26 60 0,0
09.08.2018 19:00:00 17,8 13,2 - - 5 3 - - W 1014,6 35 24 0,0
09.08.2018 18:00:00 16,2 13,1 - - 8 4 - - W 1014,3 27 18 0,0
09.08.2018 17:00:00 16,0 13,9 - - 9 5 - - WNW 1013,5 30 6 0,0
09.08.2018 16:00:00 15,7 14,8 - - 11 6 - - WNW 1013,2 21 0 0,4
09.08.2018 15:00:00 15,3 14,3 - - 11 6 - - W 1013,1 11 0 0,4
09.08.2018 14:00:00 14,8 14,0 - - 11 6 - - NW 1012,5 15 0 1,0
09.08.2018 13:00:00 14,6 14,0 - - 11 6 - - NNW 1012,1 17 0 2,4
09.08.2018 12:00:00 13,9 13,1 - - 9 5 - - NNW 1012,1 9 0 2,4
09.08.2018 11:00:00 14,3 13,3 - - 9 5 - - NNW 1012,1 8 0 1,6
09.08.2018 10:00:00 14,2 13,2 20,9 19,7 8 4 - - NW 1012,1 9 0 0,4
09.08.2018 09:00:00 14,3 11,9 - - 8 4 - - N 1012,2 50 0 0,0
09.08.2018 08:00:00 14,4 12,7 - - 4 2 - - NNW 1013,0 30 0 0,0
09.08.2018 07:00:00 14,4 13,1 - - 4 2 - - N 1012,9 22 0 0,2
09.08.2018 06:00:00 14,7 14,0 - - 5 3 - - N 1013,0 10 0 0,8
09.08.2018 05:00:00 14,6 13,6 - - 4 2 - - NO 1013,1 13 0 0,0
09.08.2018 04:00:00 14,7 13,4 - - 2 1 - - NO 1013,3 23 0 0,0
09.08.2018 03:00:00 14,8 13,2 - - 2 1 - - OZO 1013,6 28 0 0,0
09.08.2018 02:00:00 15,1 13,2 - - 2 1 - - ONO 1014,0 28 0 0,0
09.08.2018 01:00:00 15,4 13,2 - - 5 3 - - WZW 1014,5 30 - 0,0
09.08.2018 00:00:00 14,6 12,7 - - 5 3 - - WZW 1014,5 28 0 0,0
08.08.2018 23:00:00 15,1 13,0 - - 4 2 - - ZW 1014,4 30 0 0,0
08.08.2018 22:00:00 15,3 12,7 - - 2 1 - - ZW 1014,1 30 0 0,0
08.08.2018 21:00:00 16,3 12,5 - - 5 3 - - WZW 1014,0 45 0 0,0
08.08.2018 20:00:00 17,5 11,8 - - 8 4 - - WZW 1014,0 35 42 0,0
08.08.2018 19:00:00 20,3 11,6 - - 8 4 - - WZW 1013,6 35 60 0,0
08.08.2018 18:00:00 20,3 11,2 - - 15 8 - - WZW 1013,7 50 60 0,0
08.08.2018 17:00:00 20,2 10,0 - - 13 7 - - W 1013,6 50 60 0,0
08.08.2018 16:00:00 20,2 10,1 - - 18 10 - - WZW 1013,8 45 60 0,0
08.08.2018 15:00:00 20,6 13,0 - - 18 10 - - ZW 1013,8 29 48 0,0
08.08.2018 14:00:00 18,7 12,6 - - 16 9 - - ZW 1013,8 50 6 0,0

tt = temperatuur
td = dauwpunt
tt -20cm = temperatuur -20cm
tt -100cm = temperatuur -100cm
ff = windsnelheid
fx = windstoten
dd = windrichting
ppp = luchtdruk
vv = zicht
sd = Zonneschijnduur
rr = neerslag

Weerstations in de omgeving